星链-6287 (STARLINK-6287 )

导读 | 豆包AI

STARLINK-6287是美国太空探索技术公司星链互联网卫星星座的一员,于2023年5月4日发射入轨。星链计划旨在构建全球卫星互联网,为偏远地区提供网络接入,这颗卫星为星座扩容,增强了星座覆盖能力,不过大量星链卫星也引发了天文观测与空间碎片争议。

Basic Information
目录编号:
56404
目录名称:
STARLINK-6287
国际标识:
2023-061AG
轨道中心:
EARTH
卫星名称:
星链-6287
卫星全名:
星链-6287 (STARLINK-6287 )
卫星状态:
在轨 (已飞行1046 天)
发射日期:
2023-05-04 UTC
国别 :
美国 (US)
星等 :
--
Orbit Information
数据来源 国际轨道数据 AOE轨道数据
星历时间 2026-03-15T14:34:27+0800
13小时前
查看轨道信息
2026-03-11T08:00:00+0800
4天前
查看轨道信息
半长轴 6934.653km 6937.23km
偏心率 0.0001751 0.0001562
轨道倾角 43.002° 43.001°
近地点辐角 252.671° 280.438°
升交点赤经 154.211° 177.450°
平近点角 107.394° 329.922°
近地点 555.301km 558.009km
远地点 557.731km 560.177km
周期 95.785分钟 95.838分钟
每日圈数 15.033694 15.025317
Detailed Information
固有亮度:
5
最大亮度:
2.5
卫星平台:
Starlink v1.5
覆盖范围:
全球
运营商:
太空探索技术公司
运营商所在国:
美国
制造商(研发单位):
太空探索技术公司
制造商所在国:
美国
使用方式:
暂无
Satellite Introduction
星链(Starlink)计划是由太空探索技术公司(SpaceX)提出的一个巨型低轨卫星互联网星座项目,计划在2019年至2024年间在太空搭建由约1.2万颗卫星组成的“星链”网络,其中1584颗将部署在地球上空550千米处的近地轨道,并从2020年开始工作。该卫星仍在工作。
2D Orbit Map
3D Orbit Map
Orbit Altitude Analysis Chart
Orbit Inclination Analysis Chart
Orbit Comprehensive Analysis Chart
View Comprehensive Chart